Theta_e
318 318 318 318 317 317 316 315 315 313 310 309 310 312 320 321 322 323 321 321 327 343 347 348 356 354 349 347 349 354 359 358 353 352 352 345 351 350 350 352 351 349 348 345 346
315 317 319 319 318 317 317 316 315 314 311 309 310 314 321 322 323 324 320 322 333 342 353 356 360 355 361 359 354 355 357 358 349 347 348 344 351 351 353 353 350 349 346 346 348
312 315 317 319 319 318 317 316 316 313 311 310 310 317 321 322 323 317 321 326 338 346 353 354 359 361 364 356 357 359 358 347 347 347 345 345 349 348 352 352 347 350 348 348 348
311 312 316 317 318 318 317 316 316 313 311 310 310 320 321 324 320 330 324 329 341 348 350 352 352 354 359 362 356 358 355 352 347 349 344 346 347 347 349 349 345 347 346 347 347
310 311 313 317 317 317 317 315 316 313 310 309 310 321 324 320 318 323 330 333 346 350 348 351 352 357 357 354 357 357 346 346 348 346 344 346 346 347 350 345 346 346 346 348 347
310 311 312 314 317 317 315 315 316 311 310 309 314 322 323 318 319 330 326 348 348 348 347 349 351 352 351 344 347 351 340 347 347 346 345 348 346 346 347 345 348 347 347 346 347
310 310 311 313 315 315 314 315 313 310 310 310 320 326 328 317 328 337 340 346 348 347 346 347 346 341 341 340 341 337 341 340 343 343 345 342 346 347 346 346 349 348 347 346 345
309 310 311 311 312 313 313 316 313 311 310 313 323 327 319 321 327 339 347 351 351 350 339 341 343 337 338 339 342 342 340 343 347 345 344 341 346 347 345 346 348 347 347 346 344
309 310 311 310 311 311 316 320 317 313 313 321 326 323 320 325 327 333 339 332 345 347 343 338 336 334 338 341 341 342 344 348 348 346 348 341 344 349 344 345 347 347 346 344 341
308 310 310 310 310 311 319 321 320 320 323 327 329 322 318 325 327 326 331 330 328 326 329 329 328 332 337 340 347 349 350 349 348 347 348 349 349 348 347 345 345 346 344 341 340
308 309 310 310 310 313 317 322 313 316 328 322 322 317 318 322 325 323 326 327 325 327 329 332 335 339 337 339 343 346 347 350 351 348 350 352 352 350 347 347 346 344 342 341 340
307 308 310 310 310 317 316 313 316 317 314 313 320 322 322 324 324 324 322 322 322 322 330 327 334 334 335 337 344 343 347 349 350 348 348 353 355 351 348 347 346 344 343 342 340
307 307 309 310 311 317 314 316 319 315 316 319 319 322 323 323 324 323 319 318 321 322 326 325 330 332 335 335 343 344 345 347 348 352 351 351 352 354 351 347 344 343 343 342 342
307 307 310 311 313 310 317 317 320 315 317 321 323 323 323 323 325 324 319 320 322 321 324 325 326 333 333 335 333 336 340 343 351 346 347 348 351 347 347 348 347 344 341 340 340
307 308 311 310 311 312 317 320 319 317 325 327 322 322 320 322 323 323 319 319 320 322 322 326 328 332 333 335 339 338 341 346 349 348 348 349 350 346 348 348 345 345 342 340 338
308 311 310 310 311 312 317 320 318 319 324 327 321 322 322 321 322 320 321 318 317 320 320 323 320 323 326 328 339 340 341 340 341 344 348 345 348 345 343 345 345 343 342 341 340
314 313 309 310 309 317 320 314 315 315 320 323 322 320 320 319 321 322 321 320 320 320 320 319 320 320 320 322 331 338 339 347 350 350 349 343 351 345 340 340 342 343 342 340 340
316 314 315 313 313 315 315 313 317 319 322 319 320 319 320 318 319 319 320 320 317 316 315 318 319 318 318 320 319 338 337 345 350 351 349 340 351 341 338 335 339 341 340 339 340
315 317 318 319 318 316 308 311 313 315 318 319 319 321 320 322 320 320 317 317 316 314 319 315 317 315 316 317 324 328 337 331 326 320 341 341 340 334 333 334 337 339 339 339 340
314 315 317 320 318 310 309 312 315 316 318 319 322 322 324 323 323 319 317 318 322 313 316 316 318 315 317 318 317 326 325 324 316 328 333 324 332 338 335 332 336 337 339 337 337
315 316 319 320 317 311 313 312 315 317 317 321 322 324 323 323 323 322 321 325 327 326 313 311 315 317 317 316 315 317 319 314 315 317 322 323 326 329 334 331 330 337 337 338 339
311 319 319 319 314 307 315 315 316 319 314 318 318 320 321 321 323 323 325 327 325 326 323 313 311 316 316 316 316 315 316 314 317 318 313 316 320 320 328 327 330 335 336 337 338
313 314 318 315 315 313 312 314 315 315 315 318 318 320 319 322 323 328 328 327 325 326 328 319 312 316 318 316 317 318 314 312 311 311 314 318 321 317 315 321 328 333 333 334 337
310 315 311 307 307 313 314 313 316 316 317 316 318 320 322 319 320 326 324 327 323 326 335 327 311 314 320 320 318 319 315 312 313 314 313 315 319 317 318 320 326 330 332 332 335
307 311 310 313 311 311 310 314 317 318 316 315 318 318 321 319 318 320 320 318 322 325 322 321 327 321 322 323 319 319 320 313 316 315 318 318 315 318 316 317 322 328 329 333 334
309 309 307 308 308 311 310 314 317 316 317 318 318 318 318 319 319 320 317 317 321 320 321 319 327 324 326 326 321 320 321 315 315 314 315 315 314 314 318 316 321 323 328 331 332
308 308 307 306 310 310 312 314 315 315 316 317 316 317 317 318 316 315 314 315 314 316 319 320 322 324 328 326 325 326 325 320 323 316 318 320 318 317 316 319 321 324 326 328 330
Wind_Speed
27 26 24 24 24 24 24 23 20 18 16 14 14 13 13 12 9 3 6 7 15 29 29 27 13 15 5 2 1 1 3 2 3 6 3 9 5 2 7 11 3 4 5 13 25
29 27 26 25 25 26 26 24 24 19 15 13 13 11 12 12 6 8 8 11 19 32 30 21 15 15 2 2 2 2 3 5 5 7 5 11 11 8 5 9 3 5 13 28 28
31 28 27 25 25 27 27 23 26 19 13 12 11 10 10 9 3 5 16 18 27 36 23 13 21 6 3 2 3 4 4 5 6 8 9 12 6 6 11 4 6 15 17 20 23
32 29 28 27 27 27 27 27 26 18 13 10 9 7 8 2 5 0 14 21 29 34 19 17 5 5 1 3 4 3 8 5 5 8 7 11 10 5 9 4 9 19 21 18 16
33 31 29 28 29 29 29 30 24 15 12 8 6 4 1 2 7 3 17 22 36 28 16 6 4 5 3 3 5 3 2 5 8 13 9 10 10 6 10 5 15 17 18 17 13
35 33 32 31 30 32 31 34 21 12 10 6 3 1 2 2 2 6 21 33 29 26 12 8 7 7 2 4 5 7 3 3 5 7 9 10 4 6 5 11 14 19 18 16 14
36 35 34 34 32 32 36 29 16 9 7 5 4 3 1 10 4 9 26 35 29 26 7 11 6 1 2 4 2 6 4 4 5 1 2 7 5 8 8 14 16 16 17 15 14
37 36 36 35 35 34 36 21 11 6 7 7 7 3 6 3 3 17 25 22 27 23 4 8 17 3 3 3 5 5 5 2 3 4 1 6 6 3 15 17 16 15 15 14 14
38 37 37 36 34 36 25 9 4 5 8 10 3 2 8 3 7 18 27 12 23 23 13 10 4 4 3 4 4 7 3 0 3 2 2 3 4 5 10 13 16 15 13 13 11
39 38 37 36 32 34 10 9 15 12 11 5 2 3 5 3 3 13 23 17 6 7 4 6 3 3 3 5 5 5 3 2 3 2 3 1 4 6 12 13 16 15 13 11 13
40 39 37 35 32 23 7 2 4 3 2 7 5 3 5 7 3 4 9 10 3 4 4 0 3 5 9 6 3 5 3 6 4 3 3 6 5 5 14 12 12 12 13 13 16
41 41 38 33 30 8 5 4 4 3 6 9 8 5 6 3 6 4 12 6 5 6 3 3 4 7 4 7 6 4 4 4 2 1 1 1 7 7 15 19 17 17 14 15 12
41 43 37 32 19 2 8 4 7 2 0 6 5 5 5 8 6 6 8 5 4 5 6 6 5 5 4 4 5 3 7 6 4 2 2 3 5 4 6 4 9 12 14 13 16
42 41 35 34 2 12 4 1 13 7 5 5 2 3 4 7 3 7 6 6 3 11 9 6 5 4 3 3 7 6 12 4 5 3 3 4 5 6 6 9 10 15 18 18 17
46 38 34 21 14 3 1 12 6 3 3 1 2 7 2 7 3 5 6 5 9 6 7 7 7 4 6 6 6 5 5 5 4 3 1 2 1 4 8 8 15 18 18 18 18
45 37 30 7 7 7 8 10 3 5 3 4 4 3 4 3 0 2 3 6 4 5 1 7 1 5 5 4 5 8 7 8 4 2 2 3 4 8 6 7 9 15 20 21 18
44 33 13 7 3 1 9 3 5 4 4 3 1 4 4 5 2 3 5 3 6 4 4 3 3 3 3 4 4 7 7 3 3 3 6 3 2 10 10 9 6 12 15 16 16
40 11 4 6 1 4 2 5 2 1 3 3 5 2 5 7 4 3 5 4 3 5 3 6 6 8 4 8 8 6 8 6 7 5 4 3 6 8 6 4 6 10 8 10 15
23 6 5 12 5 4 5 3 5 4 3 6 6 5 5 4 4 2 7 7 8 9 8 6 6 5 5 5 10 6 4 6 7 3 1 4 8 11 9 5 4 8 8 11 14
12 5 9 8 7 3 5 3 2 4 4 1 1 1 2 3 3 5 6 1 5 9 1 7 3 6 5 4 4 6 6 3 2 4 4 5 6 6 8 12 6 8 10 9 11
5 4 10 4 4 5 4 4 4 4 3 2 1 2 2 2 1 2 1 1 3 4 6 5 5 4 3 4 9 1 1 5 5 4 6 4 7 9 13 11 7 10 9 10 11
4 3 15 4 4 2 2 4 5 5 6 5 4 1 2 1 1 2 4 1 7 2 2 3 5 4 11 3 2 6 9 7 5 5 2 3 7 7 13 8 7 8 9 9 9
2 2 8 3 3 3 5 4 2 8 7 7 7 5 4 4 1 3 3 1 7 6 1 4 1 1 8 6 1 5 6 5 3 3 7 5 8 3 7 8 8 9 8 8 7
3 3 4 5 2 4 4 4 6 7 2 5 4 3 6 7 5 3 6 3 8 4 6 5 3 5 6 7 1 4 6 6 6 4 5 7 10 8 9 8 6 8 8 8 9
4 1 3 3 4 3 3 4 4 7 5 8 5 6 3 5 6 5 4 7 4 5 4 3 4 3 8 9 7 7 5 8 6 7 6 10 11 13 11 11 10 5 6 7 8
3 3 4 1 2 3 5 4 3 5 3 5 4 8 4 4 2 4 6 3 5 6 6 2 2 1 5 6 2 6 10 10 5 3 8 1 7 13 11 4 5 11 10 9 8
5 3 3 4 3 2 1 3 3 3 3 4 5 4 5 3 5 13 9 8 7 5 3 2 1 3 5 6 7 3 8 9 6 5 6 4 12 2 6 10 9 11 9 11 13
Wind_Direction
2 358 356 355 356 355 353 350 342 336 332 331 329 329 325 324 318 262 229 225 175 167 156 150 153 147 155 124 232 230 62 151 182 148 170 145 128 145 100 135 183 159 141 137 138
358 356 353 353 352 353 352 350 343 332 328 327 325 326 320 324 302 225 236 199 175 161 153 162 159 148 189 117 193 158 117 215 195 168 159 161 142 140 121 158 135 78 105 129 140
358 354 352 350 348 347 348 345 341 326 318 317 321 322 318 330 292 245 199 189 173 165 155 164 154 166 157 156 203 189 202 201 202 161 145 157 140 159 131 199 200 156 148 142 148
356 354 352 348 346 345 343 342 336 320 307 307 314 320 316 342 197 258 189 185 173 158 140 123 138 128 129 216 178 215 239 237 149 141 135 163 142 165 174 213 161 157 154 150 164
354 353 351 346 344 344 339 337 329 311 296 295 303 325 344 353 254 289 178 182 168 172 174 140 129 157 206 208 149 237 274 153 148 162 144 146 173 173 197 108 134 146 152 159 167
352 352 350 347 343 341 338 333 321 300 279 276 267 131 149 240 266 178 165 171 173 181 183 157 180 204 274 239 168 193 123 103 150 156 153 161 154 144 136 132 134 155 162 164 174
352 350 348 346 343 340 336 331 314 280 249 232 168 132 155 234 138 167 174 177 182 186 169 202 223 277 205 288 315 103 77 54 25 93 77 124 127 212 147 147 148 166 171 169 175
351 349 346 345 344 340 337 326 301 242 205 175 146 136 239 143 107 172 176 189 190 197 196 233 235 248 207 301 22 80 67 121 330 315 66 128 250 287 159 153 162 167 177 183 187
350 349 345 345 343 339 345 0 65 142 145 140 114 138 266 250 177 188 174 173 197 217 231 256 151 203 1 78 39 18 176 234 307 35 201 160 238 162 172 166 167 172 184 187 193
349 348 345 344 343 338 11 93 91 99 110 98 56 18 275 191 174 159 186 153 158 152 206 194 95 112 39 81 198 192 175 266 202 267 9 267 231 166 178 173 179 180 181 189 197
348 347 344 343 342 336 14 213 15 17 193 192 191 228 282 300 316 152 160 143 113 90 154 70 110 192 202 170 145 139 142 195 231 200 155 217 269 212 175 181 185 194 191 192 204
348 346 343 340 338 340 12 109 123 220 302 241 233 261 270 18 1 299 154 124 123 175 115 11 217 224 109 145 126 130 193 242 307 120 142 305 245 198 185 195 189 191 201 203 210
346 344 341 337 334 7 329 156 344 205 287 296 189 192 204 142 217 256 138 121 136 126 162 180 231 148 157 127 118 189 201 210 215 134 180 316 273 225 198 172 194 207 208 209 202
344 342 341 336 332 334 286 240 330 170 49 280 260 262 133 143 238 205 183 135 129 186 159 222 261 196 149 203 149 196 226 208 134 95 227 102 286 248 201 206 209 204 205 206 206
342 340 335 332 298 264 324 327 334 103 30 357 141 169 161 160 147 206 180 53 166 171 118 229 178 164 209 193 172 233 126 117 96 85 20 224 42 262 121 223 231 210 206 204 203
340 335 327 313 237 261 319 335 104 47 255 359 117 125 138 323 151 86 110 60 131 116 75 204 220 157 209 174 135 137 73 44 62 86 313 230 129 285 180 204 194 209 209 200 195
336 330 292 204 232 26 341 51 48 139 333 324 342 70 211 191 229 143 147 127 156 103 231 356 222 258 148 138 51 82 76 19 354 0 229 275 93 241 275 231 233 196 209 201 203
339 347 331 231 143 305 31 55 181 217 288 334 335 332 186 164 203 108 115 194 262 90 118 164 312 187 193 181 183 182 149 153 189 206 252 74 232 251 245 259 203 195 195 171 187
348 9 30 347 242 231 73 86 213 208 298 325 327 68 351 44 101 90 174 198 198 170 182 140 261 286 189 159 146 183 160 176 102 23 80 222 282 302 282 319 176 195 191 190 186
345 355 26 25 92 61 76 217 248 223 308 339 308 77 11 339 93 148 183 46 322 205 116 212 274 224 257 103 69 158 162 84 15 147 232 284 289 246 288 283 193 209 206 208 189
1 56 1 325 345 49 119 232 291 257 272 217 288 305 241 304 161 143 95 121 328 315 167 146 147 244 137 181 168 43 159 57 122 135 171 211 257 224 245 250 250 226 209 204 189
356 57 356 137 46 23 62 333 310 332 0 357 28 263 281 269 281 143 134 99 333 289 106 200 160 197 209 192 180 171 194 151 134 237 236 199 262 230 235 249 244 228 215 200 190
47 279 357 10 88 2 320 327 3 9 2 9 0 39 359 34 288 35 339 188 4 34 43 172 221 351 330 352 28 197 193 140 120 101 193 147 263 332 284 268 257 232 208 202 186
60 27 343 40 34 99 9 355 330 0 62 351 357 53 33 26 14 355 346 313 343 13 2 96 115 160 207 213 176 178 189 191 128 115 171 218 263 282 275 270 269 237 231 196 169
27 60 174 357 0 35 4 12 357 2 353 13 33 34 325 20 4 5 346 325 320 354 19 111 167 211 249 256 206 230 192 179 155 184 167 241 199 248 238 245 243 245 179 173 176
67 41 2 82 309 11 2 20 32 342 326 349 37 330 352 106 109 300 21 295 269 331 344 7 239 149 296 352 311 242 231 181 225 157 269 200 270 234 257 279 255 258 164 178 192
28 41 99 336 4 71 23 335 341 354 283 87 336 340 341 76 293 265 235 250 265 340 301 324 96 39 275 338 320 298 205 180 203 195 157 166 236 78 245 240 237 240 209 194 181